Location: Unspecified
(52.1639°N, 0.0000°E)
Time: 04:20:41
(UTC+00:00)

NOAA 15 - Visible Passes

Search period start: 04 April 2026 00:00
Search period end: 14 April 2026 00:00
Orbit: 795 x 808 km, 98.5° (Epoch: 29 March)

Date Brightness Start Highest point End Pass type
(mag) Time Alt. Az. Time Alt. Az. Time Alt. Az.
5 Apr 7.8 20:10:26 10° WSW 20:12:10 11° W 20:13:54 10° WNW visible
6 Apr 7.4 19:41:50 10° SW 19:45:31 19° W 19:49:12 10° NW visible
7 Apr 6.8 19:14:23 10° SSW 19:18:57 29° W 19:23:34 10° NNW visible
9 Apr 7.7 20:04:34 10° WSW 20:06:51 13° W 20:09:08 10° WNW visible
10 Apr 7.3 19:36:19 10° SW 19:40:12 20° W 19:44:06 10° NW visible
13 Apr 7.6 19:58:50 10° WSW 20:01:32 14° W 20:04:14 10° NW visible
